Location: Smyrna_Hopewell
(35.6500°N, 81.0330°W)
Time: 19:06:12
(UTC-04:00)

Cosmos 2221 - Visible Passes

Search period start: 25 June 2016 00:00
Search period end: 05 July 2016 00:00
Orbit: 593 x 619 km, 82.5° (Epoch: 25 June)

Date Brightness Start Highest point End Pass type
(mag) Time Alt. Az. Time Alt. Az. Time Alt. Az.
25 Jun 3.4 21:21:43 10° NNW 21:25:52 50° W 21:30:01 10° SSW visible
26 Jun 4.5 21:35:20 10° NNW 21:38:59 28° W 21:42:39 10° SSW visible
27 Jun 5.3 21:49:24 10° NW 21:52:03 16° W 21:54:42 10° SW visible
02 Jul 5.5 21:18:30 10° WNW 21:20:37 13° W 21:22:44 10° WSW visible
